TimeCDT,TemperatureF,Dew PointF,Humidity,Sea Level PressureIn,VisibilityMPH,Wind Direction,Wind SpeedMPH,Gust SpeedMPH,PrecipitationIn,Events,Conditions,WindDirDegrees,DateUTC
12:15 AM,51.8,37.4,58,30.24,10.0,West,3.5,-,N/A,,Overcast,270,2012-10-08 05:15:00
12:35 AM,50.0,37.4,62,30.23,10.0,West,3.5,-,N/A,,Mostly Cloudy,260,2012-10-08 05:35:00
12:55 AM,48.2,37.4,66,30.23,10.0,Calm,Calm,-,N/A,,Clear,0,2012-10-08 05:55:00
1:15 AM,48.2,35.6,62,30.23,10.0,Calm,Calm,-,N/A,,Clear,0,2012-10-08 06:15:00
1:35 AM,46.4,35.6,66,30.23,10.0,WNW,3.5,-,N/A,,Clear,290,2012-10-08 06:35:00
1:55 AM,46.4,35.6,66,30.24,10.0,Calm,Calm,-,N/A,,Clear,0,2012-10-08 06:55:00
2:15 AM,44.6,37.4,76,30.24,10.0,Calm,Calm,-,N/A,,Clear,0,2012-10-08 07:15:00
2:35 AM,44.6,37.4,76,30.23,10.0,Calm,Calm,-,N/A,,Clear,0,2012-10-08 07:35:00
2:55 AM,44.6,35.6,71,30.23,10.0,Calm,Calm,-,N/A,,Clear,0,2012-10-08 07:55:00
3:15 AM,42.8,37.4,81,30.23,10.0,NW,4.6,-,N/A,,Clear,320,2012-10-08 08:15:00
3:35 AM,41.0,37.4,87,30.23,10.0,NNW,3.5,-,N/A,,Clear,330,2012-10-08 08:35:00
3:55 AM,42.8,37.4,81,30.22,10.0,NNW,3.5,-,N/A,,Clear,340,2012-10-08 08:55:00
4:15 AM,42.8,37.4,81,30.22,10.0,North,3.5,-,N/A,,Clear,350,2012-10-08 09:15:00
4:35 AM,42.8,37.4,81,30.22,10.0,Calm,Calm,-,N/A,,Clear,0,2012-10-08 09:35:00
4:55 AM,42.8,37.4,81,30.23,10.0,North,4.6,-,N/A,,Clear,350,2012-10-08 09:55:00
5:15 AM,41.0,37.4,87,30.23,10.0,North,4.6,-,N/A,,Clear,350,2012-10-08 10:15:00
5:35 AM,41.0,37.4,87,30.23,10.0,North,4.6,-,N/A,,Clear,360,2012-10-08 10:35:00
5:55 AM,39.2,35.6,87,30.23,10.0,North,4.6,-,N/A,,Clear,360,2012-10-08 10:55:00
6:15 AM,39.2,37.4,93,30.23,10.0,North,3.5,-,N/A,,Clear,360,2012-10-08 11:15:00
6:35 AM,39.2,35.6,87,30.23,10.0,North,-9999.0,-,N/A,,Clear,0,2012-10-08 11:35:00
6:55 AM,39.2,35.6,87,30.24,10.0,NNW,3.5,-,N/A,,Clear,340,2012-10-08 11:55:00
7:15 AM,39.2,35.6,87,30.24,10.0,North,4.6,-,N/A,,Clear,350,2012-10-08 12:15:00
7:35 AM,39.2,35.6,87,30.25,10.0,North,3.5,-,N/A,,Clear,10,2012-10-08 12:35:00
7:55 AM,39.2,35.6,87,30.25,10.0,NNE,3.5,-,N/A,,Clear,20,2012-10-08 12:55:00
8:15 AM,41.0,39.2,93,30.26,10.0,North,4.6,-,N/A,,Clear,360,2012-10-08 13:15:00
8:35 AM,44.6,41.0,87,30.27,10.0,NNE,4.6,-,N/A,,Clear,20,2012-10-08 13:35:00
8:55 AM,46.4,42.8,87,30.27,10.0,NNE,4.6,-,N/A,,Clear,30,2012-10-08 13:55:00
9:15 AM,48.2,42.8,82,30.27,10.0,ENE,4.6,-,N/A,,Clear,60,2012-10-08 14:15:00
9:35 AM,50.0,42.8,76,30.27,10.0,East,5.8,-,N/A,,Clear,80,2012-10-08 14:35:00
9:55 AM,53.6,42.8,67,30.28,10.0,East,4.6,-,N/A,,Clear,90,2012-10-08 14:55:00
10:15 AM,53.6,41.0,62,30.28,10.0,ESE,5.8,-,N/A,,Clear,120,2012-10-08 15:15:00
10:35 AM,55.4,39.2,54,30.27,10.0,Calm,Calm,-,N/A,,Clear,0,2012-10-08 15:35:00
10:55 AM,55.4,37.4,51,30.27,10.0,SSW,3.5,-,N/A,,Clear,200,2012-10-08 15:55:00
11:15 AM,57.2,37.4,48,30.26,10.0,Calm,Calm,-,N/A,,Clear,0,2012-10-08 16:15:00
11:35 AM,57.2,37.4,48,30.26,10.0,SSW,4.6,-,N/A,,Clear,200,2012-10-08 16:35:00
11:55 AM,59.0,37.4,45,30.25,10.0,South,5.8,-,N/A,,Clear,180,2012-10-08 16:55:00
12:15 PM,60.8,37.4,42,30.25,10.0,Calm,Calm,-,N/A,,Clear,0,2012-10-08 17:15:00
12:35 PM,60.8,37.4,42,30.25,10.0,South,9.2,-,N/A,,Clear,190,2012-10-08 17:35:00
12:55 PM,60.8,35.6,39,30.23,10.0,West,3.5,-,N/A,,Clear,260,2012-10-08 17:55:00
1:15 PM,60.8,37.4,42,30.23,10.0,SSE,5.8,-,N/A,,Clear,150,2012-10-08 18:15:00
1:35 PM,62.6,37.4,39,30.22,10.0,NNW,3.5,-,N/A,,Clear,330,2012-10-08 18:35:00
1:55 PM,62.6,37.4,39,30.20,10.0,SSW,4.6,-,N/A,,Clear,210,2012-10-08 18:55:00
2:15 PM,64.4,37.4,37,30.18,10.0,Calm,Calm,-,N/A,,Clear,0,2012-10-08 19:15:00
2:35 PM,64.4,37.4,37,30.18,10.0,Calm,Calm,-,N/A,,Clear,0,2012-10-08 19:35:00
2:55 PM,64.4,37.4,37,30.17,10.0,ESE,5.8,-,N/A,,Clear,110,2012-10-08 19:55:00
3:15 PM,64.4,35.6,34,30.16,10.0,South,3.5,-,N/A,,Clear,180,2012-10-08 20:15:00
3:35 PM,64.4,37.4,37,30.15,10.0,SSW,6.9,-,N/A,,Clear,200,2012-10-08 20:35:00
3:55 PM,64.4,35.6,34,30.14,10.0,South,5.8,-,N/A,,Clear,180,2012-10-08 20:55:00
4:15 PM,64.4,35.6,34,30.14,10.0,SE,6.9,-,N/A,,Clear,130,2012-10-08 21:15:00
4:35 PM,64.4,35.6,34,30.13,10.0,South,8.1,-,N/A,,Clear,190,2012-10-08 21:35:00
4:55 PM,64.4,35.6,34,30.13,10.0,South,6.9,-,N/A,,Clear,170,2012-10-08 21:55:00
5:15 PM,64.4,37.4,37,30.12,10.0,SSE,11.5,-,N/A,,Clear,160,2012-10-08 22:15:00
5:35 PM,64.4,37.4,37,30.12,10.0,SSE,6.9,-,N/A,,Clear,160,2012-10-08 22:35:00
5:55 PM,64.4,37.4,37,30.12,10.0,SSE,5.8,-,N/A,,Clear,160,2012-10-08 22:55:00
6:15 PM,62.6,37.4,39,30.11,10.0,SSE,9.2,-,N/A,,Clear,160,2012-10-08 23:15:00
6:35 PM,62.6,39.2,42,30.12,10.0,SSE,6.9,-,N/A,,Clear,160,2012-10-08 23:35:00
6:55 PM,57.2,39.2,51,30.11,10.0,SSE,8.1,-,N/A,,Clear,150,2012-10-08 23:55:00
7:15 PM,55.4,39.2,54,30.11,10.0,SSE,8.1,-,N/A,,Clear,160,2012-10-09 00:15:00
7:35 PM,53.6,39.2,58,30.11,10.0,SSE,8.1,-,N/A,,Clear,160,2012-10-09 00:35:00
7:55 PM,53.6,39.2,58,30.11,10.0,SSE,8.1,-,N/A,,Clear,160,2012-10-09 00:55:00
8:15 PM,53.6,39.2,58,30.11,10.0,SSE,8.1,-,N/A,,Clear,160,2012-10-09 01:15:00
8:35 PM,53.6,41.0,62,30.11,10.0,SSE,9.2,-,N/A,,Clear,150,2012-10-09 01:35:00
9:15 PM,51.8,41.0,67,30.12,10.0,SE,9.2,-,N/A,,Clear,140,2012-10-09 02:15:00
9:35 PM,51.8,42.8,71,30.12,10.0,SE,9.2,-,N/A,,Clear,140,2012-10-09 02:35:00
9:55 PM,51.8,42.8,71,30.13,10.0,SSE,9.2,-,N/A,,Clear,150,2012-10-09 02:55:00
10:15 PM,50.0,42.8,76,30.12,10.0,SE,9.2,-,N/A,,Clear,140,2012-10-09 03:15:00
10:55 PM,51.8,42.8,71,30.12,10.0,SE,9.2,-,N/A,,Clear,140,2012-10-09 03:55:00
11:15 PM,51.8,42.8,71,30.13,10.0,SE,8.1,-,N/A,,Clear,140,2012-10-09 04:15:00
11:35 PM,50.0,42.8,76,30.13,10.0,SE,8.1,-,N/A,,Clear,140,2012-10-09 04:35:00
11:55 PM,50.0,42.8,76,30.12,10.0,SSE,9.2,-,N/A,,Clear,150,2012-10-09 04:55:00